#timestamp,LO_Frequency,Hit,StdDev 
1622800815.4,286047002.4,N
1622800835.3,286047002.3,N
1622800855.1,286046999.9,N
1622800875.9,286047000.6,N
1622800895.7,286047002.6,N
1622800915.5,286047002.1,N
1622800935.4,286047002.4,N
1622800955.2,286046999.7,N
1622800975.0,286046999.7,N
1622800975.9,286046999.7,N
1622800995.8,286047001.0,N
1622801015.6,286046999.9,N
1622801035.5,286047001.2,N
1622801055.3,286046998.8,N
1622801075.1,286046998.8,N
1622801095.9,286046998.7,N
1622801115.7,286047000.0,N
1622801135.5,286046998.8,N
1622801155.4,286046999.1,N
1622801175.2,286046999.1,N
1622801195.1,286046998.7,N
1622801196.0,286046998.7,N
1622801215.8,286046998.4,N
1622801235.6,286046999.1,N
1622801255.5,286046999.5,N
1622801275.3,286046996.5,N
1622801295.2,286046997.4,N
1622801315.9,286046995.3,N
1622801335.7,286046997.3,N
1622801355.6,286046997.8,N
1622801375.4,286046999.6,N
1622801395.3,286046997.4,N
1622801415.1,286046997.7,N
1622801416.0,286046997.7,N
1622801435.8,286046999.4,N
1622801455.7,286046999.2,N
1622801475.5,286046999.1,N
1622801495.3,286046996.9,N
1622801515.2,286046996.8,N
1622801535.0,286046997.3,N
1622801535.9,286046997.3,N
1622801555.8,286046997.7,N
1622801575.6,286046997.0,N
1622801595.4,286046999.1,N
1622801615.3,286046999.1,N
1622801635.1,286046998.8,N
1622801655.8,286046997.3,N
1622801675.7,286046996.5,Y
1622801695.5,286046998.8,P
1622801715.4,286046996.5,P
1622801735.2,286046997.6,N
1622801755.0,286046995.1,Y
1622801755.9,286046995.1,P
1622801775.8,286046998.4,N
1622801795.6,286046998.6,N
1622801815.5,286046999.3,N
1622801835.3,286046999.2,N
1622801855.1,286046999.4,N
1622801875.9,286046999.0,N
1622801895.7,286046999.3,N
1622801915.5,286046999.5,N
1622801935.4,286046999.3,N
1622801955.2,286046997.3,N
1622801975.0,286046996.6,N
1622801976.0,286046996.6,N
1622801995.8,286046999.2,N
1622802015.6,286046997.0,N
1622802035.5,286046996.5,N
1622802055.3,286046997.2,N
1622802075.1,286046996.7,N
1622802095.9,286046998.7,N
1622802115.7,286046998.8,N
1622802135.5,286046998.9,N
1622802155.4,286046999.1,N
1622802175.2,286046996.7,N
1622802195.1,286046997.5,N
1622802196.0,286046997.5,N
1622802215.8,286046997.0,N
1622802235.6,286046997.4,N
1622802255.5,286046997.9,N
1622802275.3,286046996.9,N
1622802295.1,286046996.9,N
1622802315.9,286046997.9,N
1622802335.7,286046995.3,Y
1622802355.6,286046998.8,P
1622802375.4,286046997.8,P
1622802395.2,286046995.0,P
1622802415.1,286046994.9,Y
1622802416.0,286046994.9,P
1622802435.8,286046999.3,N
1622802455.7,286046999.4,N
1622802475.5,286046999.3,N
1622802495.3,286046998.6,N
1622802515.2,286046999.2,N
1622802535.0,286046997.5,N
1622802535.9,286046997.5,N
1622802555.7,286046996.5,N
1622802575.6,286046996.9,N
1622802595.4,286046997.0,N
1622802615.3,286046996.7,N
1622802635.1,286046997.3,N
1622802636.0,286046997.3,N
1622802655.8,286046999.4,N
1622802675.7,286046998.2,N
1622802695.5,286046999.3,N
1622802715.3,286046998.9,N
1622802735.2,286046998.3,N
1622802755.0,286046998.8,N
1622802755.9,286046998.8,N
1622802775.8,286046999.0,N
1622802795.6,286046998.3,N
1622802815.4,286046998.8,N
1622802835.3,286046998.7,N
1622802855.1,286046998.8,N
1622802875.9,286046998.9,N
1622802895.7,286046999.3,N
1622802915.5,286046998.3,N
1622802935.4,286047000.7,N
1622802955.2,286046999.8,N
1622802975.0,286047002.6,N
1622802975.9,286047002.6,N
1622802995.8,286047002.6,N
1622803015.6,286047002.8,N
1622803035.5,286046999.7,N
1622803055.3,286046999.9,N
1622803075.1,286047011.9,Y
1622803095.9,286047003.9,P
1622803115.7,286047004.4,N
1622803135.6,286047001.4,N
1622803155.4,286047005.7,N
1622803175.2,286047003.4,N
1622803195.1,286047003.3,N
1622803196.0,286047003.3,N
1622803215.8,286047003.4,N
1622803235.6,286047003.5,N
1622803255.5,286047003.8,N
1622803275.3,286047004.1,N
1622803295.2,286047003.6,N
1622803315.9,286047003.8,N
1622803335.7,286047004.2,N
1622803355.6,286047003.9,N
1622803375.4,286047003.8,N
1622803395.2,286047003.8,N
1622803415.1,286047002.2,N
1622803416.0,286047002.2,N
1622803435.8,286047002.1,N
1622803455.7,286047001.6,N
1622803475.5,286047001.4,N
1622803495.3,286047003.7,N
1622803515.2,286047003.4,N
1622803535.9,286047005.5,Y
1622803555.7,286046999.7,P
1622803575.6,286047002.0,N
1622803595.4,286047002.5,N
1622803615.3,286047002.1,N
1622803635.1,286047015.7,Y
1622803655.9,286047014.6,P
1622803675.7,286047011.5,N
1622803695.5,286047008.1,N
1622803715.4,286047006.5,N
1622803735.2,286047007.1,N
1622803755.0,286047003.5,N
1622803755.9,286047003.5,N
1622803775.8,286047001.4,N
1622803795.6,286047002.0,N
1622803815.5,286046999.7,N
1622803835.3,286046999.8,N
1622803855.1,286047001.0,N
1622803875.9,286047000.4,N
1622803895.7,286047000.9,N
1622803915.6,286047000.4,N
1622803935.4,286047002.3,N
1622803955.2,286047000.2,N
1622803975.1,286047000.2,N
1622803976.0,286047000.2,N
1622803995.8,286047002.3,N
1622804015.7,286047002.7,N
1622804035.5,286047000.1,N
1622804055.3,286046998.2,N
1622804075.2,286046998.5,N
1622804095.0,286047001.1,N
1622804095.9,286047001.1,N
1622804115.7,286046998.8,N
1622804135.6,286046998.4,N
1622804155.4,286046998.4,N
1622804175.3,286046998.6,N
1622804195.1,286046998.8,N
1622804196.0,286046998.8,N
1622804215.8,286046998.3,N
1622804235.7,286046998.3,N
1622804255.5,286046998.5,N
1622804275.4,286046998.4,N
1622804295.2,286046998.9,N
1622804315.0,286047000.8,N
1622804315.9,286047000.8,N
1622804335.8,286047000.0,N
1622804355.6,286047002.4,N
1622804375.5,286047000.3,N
1622804395.3,286047001.0,N
